Hourly Weather Kyrdzhali

Today, 3 December, Thursday

Time Temperature Precipitation Wind Pressure Humidity
00:00 -1°C° 0 mm 0 mps 730 mmHg 80%
01:00 -1°C° 0 mm 0 mps 730 mmHg 81%
02:00 -1°C° 0 mm 0 mps 730 mmHg 83%
03:00 -1°C° 0 mm 0 mps 730 mmHg 84%
04:00 -1°C° 0 mm 0 mps 730 mmHg 85%
05:00 -1°C° 0 mm 0 mps 730 mmHg 86%
06:00 -1°C° 0 mm 0 mps 730 mmHg 86%
07:00 -1°C° 0 mm 0 mps 730 mmHg 85%
08:00 -1°C° 0 mm 0 mps 730 mmHg 84%
09:00 +1°C° 0 mm 0 mps 730 mmHg 78%
10:00 +3°C° 0 mm 1 mps 730 mmHg 73%
11:00 +5°C° 0 mm 1 mps 730 mmHg 67%
12:00 +6°C° 0 mm 1 mps 729 mmHg 67%
13:00 +6°C° 0 mm 1 mps 729 mmHg 66%
14:00 +7°C° 0 mm 1 mps 729 mmHg 68%
15:00 +6°C° 0 mm 1 mps 729 mmHg 74%
16:00 +4°C° 0 mm 1 mps 728 mmHg 80%
17:00 +2°C° 0 mm 0 mps 728 mmHg 87%
18:00 +2°C° 0 mm 0 mps 728 mmHg 88%
19:00 +2°C° 0 mm 0 mps 727 mmHg 89%
20:00 +1°C° 0 mm 0 mps 727 mmHg 90%
21:00 +1°C° 0 mm 0 mps 727 mmHg 90%
22:00 +1°C° 0 mm 0 mps 727 mmHg 90%
23:00 +1°C° 0 mm 0 mps 727 mmHg 91%

Tomorrow, 4 December, Friday

Time Temperature Precipitation Wind Pressure Humidity
00:00 +1°C° 0 mm 0 mps 727 mmHg 90%
01:00 +2°C° 0 mm 0 mps 726 mmHg 90%
02:00 +3°C° 0 mm 1 mps 726 mmHg 90%
03:00 +3°C° 0 mm 1 mps 725 mmHg 90%
04:00 +3°C° 0 mm 1 mps 725 mmHg 89%
05:00 +3°C° 0 mm 1 mps 725 mmHg 89%
06:00 +3°C° 0 mm 1 mps 725 mmHg 89%
07:00 +3°C° 0 mm 1 mps 725 mmHg 88%
08:00 +4°C° 0 mm 1 mps 725 mmHg 88%
09:00 +5°C° 0 mm 1 mps 725 mmHg 86%
10:00 +6°C° 0 mm 1 mps 725 mmHg 84%
11:00 +7°C° 0 mm 1 mps 725 mmHg 82%
12:00 +7°C° 0.1 mm 1 mps 725 mmHg 84%
13:00 +7°C° 0.1 mm 1 mps 725 mmHg 85%
14:00 +7°C° 0.1 mm 1 mps 724 mmHg 87%
15:00 +7°C° 1.6 mm 1 mps 724 mmHg 90%
16:00 +6°C° 1.6 mm 1 mps 724 mmHg 93%
17:00 +6°C° 1.6 mm 1 mps 724 mmHg 97%
18:00 +6°C° 1 mm 1 mps 724 mmHg 97%
19:00 +6°C° 1 mm 1 mps 724 mmHg 97%
20:00 +5°C° 1 mm 0 mps 725 mmHg 98%
21:00 +6°C° 0.1 mm 0 mps 725 mmHg 97%
22:00 +6°C° 0.1 mm 0 mps 725 mmHg 97%
23:00 +6°C° 0.1 mm 0 mps 725 mmHg 97%

Day after tomorrow, 5 December, Saturday

Time Temperature Precipitation Wind Pressure Humidity
00:00 +6°C° 0 mm 0 mps 725 mmHg 96%
01:00 +7°C° 0 mm 0 mps 725 mmHg 96%
02:00 +7°C° 0 mm 0 mps 725 mmHg 95%
03:00 +7°C° 0 mm 0 mps 725 mmHg 95%
04:00 +7°C° 0 mm 0 mps 725 mmHg 95%
05:00 +7°C° 0 mm 0 mps 725 mmHg 94%
06:00 +7°C° 0 mm 0 mps 725 mmHg 94%
07:00 +7°C° 0 mm 0 mps 726 mmHg 94%
08:00 +7°C° 0 mm 0 mps 726 mmHg 94%
09:00 +8°C° 0 mm 0 mps 726 mmHg 91%
10:00 +9°C° 0 mm 0 mps 726 mmHg 88%
11:00 +10°C° 0 mm 0 mps 727 mmHg 86%
12:00 +12°C° 0 mm 1 mps 727 mmHg 83%
13:00 +13°C° 0 mm 1 mps 726 mmHg 81%
14:00 +13°C° 0 mm 1 mps 726 mmHg 79%
15:00 +12°C° 0 mm 1 mps 726 mmHg 82%
16:00 +11°C° 0 mm 1 mps 726 mmHg 86%
17:00 +9°C° 0 mm 0 mps 727 mmHg 89%
18:00 +9°C° 0 mm 0 mps 727 mmHg 90%
19:00 +9°C° 0 mm 0 mps 727 mmHg 90%
20:00 +8°C° 0 mm 0 mps 727 mmHg 90%
21:00 +8°C° 0 mm 0 mps 727 mmHg 90%
22:00 +8°C° 0 mm 0 mps 727 mmHg 90%
23:00 +9°C° 0 mm 1 mps 727 mmHg 89%

6 December, Sunday

Time Temperature Precipitation Wind Pressure Humidity
00:00 +9°C° 0 mm 1 mps 728 mmHg 89%
01:00 +8°C° 0 mm 1 mps 728 mmHg 90%
02:00 +8°C° 0 mm 1 mps 728 mmHg 90%
03:00 +8°C° 0 mm 1 mps 727 mmHg 90%
04:00 +8°C° 0 mm 1 mps 727 mmHg 90%
05:00 +8°C° 0 mm 1 mps 727 mmHg 91%
06:00 +7°C° 0 mm 1 mps 727 mmHg 91%
07:00 +7°C° 0 mm 1 mps 727 mmHg 92%
08:00 +7°C° 0 mm 1 mps 727 mmHg 92%
09:00 +9°C° 0 mm 1 mps 727 mmHg 88%
10:00 +10°C° 0 mm 1 mps 727 mmHg 84%
11:00 +12°C° 0 mm 1 mps 727 mmHg 80%
12:00 +12°C° 0 mm 2 mps 727 mmHg 79%
13:00 +12°C° 0 mm 2 mps 727 mmHg 78%
14:00 +13°C° 0 mm 2 mps 726 mmHg 76%
15:00 +12°C° 0 mm 2 mps 726 mmHg 81%
16:00 +10°C° 0 mm 2 mps 726 mmHg 86%
17:00 +10°C° 0 mm 1 mps 726 mmHg 91%
18:00 +9°C° 0 mm 2 mps 726 mmHg 92%
19:00 +9°C° 0 mm 2 mps 726 mmHg 92%
20:00 +9°C° 0 mm 2 mps 726 mmHg 93%
21:00 +8°C° 0 mm 2 mps 726 mmHg 94%
22:00 +8°C° 0 mm 2 mps 726 mmHg 95%
23:00 +8°C° 0 mm 2 mps 726 mmHg 95%

7 December, Monday

Time Temperature Precipitation Wind Pressure Humidity
00:00 +8°C° 0 mm 2 mps 725 mmHg 95%
01:00 +7°C° 0 mm 2 mps 725 mmHg 95%
02:00 +7°C° 0 mm 2 mps 724 mmHg 95%
03:00 +7°C° 0.1 mm 2 mps 724 mmHg 95%
04:00 +7°C° 0.1 mm 2 mps 724 mmHg 95%
05:00 +7°C° 0.1 mm 3 mps 723 mmHg 95%
06:00 +7°C° 1.1 mm 3 mps 723 mmHg 95%
07:00 +7°C° 1.1 mm 2 mps 722 mmHg 95%
08:00 +7°C° 1.1 mm 2 mps 722 mmHg 96%
09:00 +7°C° 1.8 mm 3 mps 722 mmHg 96%
10:00 +7°C° 1.8 mm 3 mps 722 mmHg 96%
11:00 +7°C° 1.8 mm 3 mps 722 mmHg 96%
12:00 +7°C° 4.1 mm 3 mps 721 mmHg 96%
13:00 +8°C° 4.1 mm 2 mps 721 mmHg 96%
14:00 +8°C° 4.1 mm 2 mps 720 mmHg 95%
15:00 +8°C° 1.8 mm 1 mps 721 mmHg 95%
16:00 +8°C° 1.8 mm 1 mps 721 mmHg 94%
17:00 +8°C° 1.8 mm 1 mps 721 mmHg 93%
18:00 +7°C° 0 mm 1 mps 721 mmHg 93%
19:00 +7°C° 0 mm 1 mps 721 mmHg 92%
20:00 +7°C° 0 mm 1 mps 722 mmHg 92%
21:00 +7°C° 0 mm 1 mps 722 mmHg 91%
22:00 +6°C° 0 mm 1 mps 722 mmHg 91%
23:00 +6°C° 0 mm 1 mps 723 mmHg 90%

8 December, Tuesday

Time Temperature Precipitation Wind Pressure Humidity
00:00 +5°C° 0 mm 0 mps 723 mmHg 90%
01:00 +5°C° 0 mm 0 mps 722 mmHg 89%
02:00 +5°C° 0 mm 0 mps 722 mmHg 89%
03:00 +6°C° 0 mm 1 mps 722 mmHg 88%
04:00 +6°C° 0 mm 1 mps 722 mmHg 88%
05:00 +6°C° 0 mm 1 mps 722 mmHg 87%
06:00 +6°C° 0 mm 1 mps 722 mmHg 88%
07:00 +6°C° 0 mm 1 mps 722 mmHg 88%
08:00 +5°C° 0 mm 0 mps 722 mmHg 88%
09:00 +8°C° 0 mm 1 mps 722 mmHg 86%
10:00 +9°C° 0 mm 1 mps 723 mmHg 84%
11:00 +10°C° 0 mm 1 mps 723 mmHg 82%
12:00 +10°C° 0.3 mm 1 mps 722 mmHg 82%
13:00 +10°C° 0.3 mm 2 mps 722 mmHg 82%
14:00 +10°C° 0.3 mm 2 mps 722 mmHg 83%
15:00 +9°C° 0.3 mm 2 mps 722 mmHg 85%
16:00 +9°C° 0.3 mm 1 mps 722 mmHg 88%
17:00 +9°C° 0.3 mm 1 mps 722 mmHg 91%
18:00 +8°C° 0 mm 1 mps 722 mmHg 91%
19:00 +8°C° 0 mm 1 mps 722 mmHg 91%
20:00 +7°C° 0 mm 1 mps 723 mmHg 91%
21:00 +7°C° 0 mm 1 mps 723 mmHg 90%
22:00 +7°C° 0 mm 1 mps 723 mmHg 90%
23:00 +7°C° 0 mm 1 mps 723 mmHg 89%
Show more